GFSNGP_con_3kmhel_036.txt.gz
Helicity
49 41 30 41 29 13 23 21 75 22 39 29 93 91 100 109 137 181 215 238 242 238 272 273 262 239 189 170 179 182 144 123 134 132 131 136 129 112 117 119 118 122 145 132
37 42 50 30 -10 9 17 19 37 27 32 27 81 112 133 125 137 161 193 221 239 259 270 261 259 231 172 177 178 164 127 117 122 122 129 136 121 115 118 109 112 119 122 142
38 64 49 5 15 55 77 97 89 89 64 128 108 99 107 106 107 130 155 180 242 262 251 246 228 195 176 181 182 130 118 115 122 134 127 114 111 112 103 110 126 136 124 138
47 47 36 73 69 80 39 24 52 49 73 102 133 140 125 82 87 106 119 175 230 248 240 236 258 206 209 204 142 116 105 115 136 125 104 110 114 109 121 127 122 132 134 128
66 57 70 27 84 80 73 79 99 62 67 121 128 143 96 86 78 79 111 175 204 237 249 265 238 200 238 155 111 106 99 115 120 110 104 111 118 140 124 135 124 151 126 127
97 57 35 93 96 91 56 61 135 107 87 83 96 129 148 81 61 92 156 217 277 295 272 303 252 268 190 125 97 91 111 111 109 106 110 116 135 138 136 124 124 132 125 131
109 80 68 88 89 95 93 180 94 45 54 55 69 111 141 102 116 149 214 268 342 348 357 364 363 210 146 102 83 109 111 102 96 109 125 122 137 132 127 116 125 137 143 125
110 103 70 92 76 97 131 89 95 90 107 90 130 146 159 178 196 242 333 397 427 496 590 413 170 142 105 76 109 101 91 83 96 129 139 145 119 114 119 112 118 131 148 104
84 115 107 45 72 108 104 96 97 117 136 141 147 144 179 230 297 355 417 542 544 571 425 388 195 96 68 93 91 80 73 83 102 122 127 113 106 105 115 116 125 121 112 87
97 74 52 39 65 78 77 71 81 75 96 121 125 166 223 308 393 437 527 530 467 548 237 357 157 79 73 77 70 70 70 82 102 121 135 108 116 110 118 120 120 122 98 82
74 59 89 87 96 93 93 99 96 116 126 118 133 201 253 350 409 503 594 531 464 315 218 192 112 78 55 55 66 65 70 89 118 129 118 103 102 113 111 109 114 98 80 85
130 125 100 90 97 90 90 107 120 123 146 165 190 231 305 397 496 521 569 533 358 268 158 84 60 38 52 62 64 61 77 106 129 125 110 109 96 98 122 117 120 104 64 73
113 82 75 89 118 133 134 148 175 222 239 276 326 354 455 556 476 481 455 360 197 82 75 51 35 41 55 57 60 66 84 108 116 115 116 111 98 102 105 107 115 91 80 67
150 123 104 160 135 151 180 218 275 320 345 376 476 596 558 558 538 384 179 61 46 42 37 36 44 49 55 57 64 69 76 95 85 86 100 110 99 98 119 101 97 96 100 91
145 133 150 161 173 199 214 224 302 335 332 387 385 349 286 254 115 40 29 18 22 21 32 48 55 55 65 71 69 79 94 83 89 105 109 113 105 96 119 117 97 80 71 106
141 162 171 189 182 173 184 213 235 231 210 183 152 105 93 36 -15 -10 6 28 48 54 66 84 84 66 71 72 80 100 101 106 106 87 89 112 116 106 102 112 99 86 78 74
98 119 112 124 112 108 100 87 86 65 66 45 16 -6 -23 -10 4 18 40 54 66 73 78 91 91 81 103 108 110 131 131 120 139 116 94 95 92 86 103 111 98 79 76 89
134 95 51 27 24 41 51 65 59 43 23 15 24 33 28 34 39 51 62 70 74 77 83 103 122 107 140 151 162 171 170 162 158 151 139 129 106 86 92 101 88 79 77 81
98 75 79 96 94 86 66 59 63 63 54 45 43 47 56 63 60 69 79 88 86 88 79 116 124 145 135 174 222 207 183 162 152 139 130 115 137 102 85 91 95 100 84 87
103 109 104 106 98 91 88 83 59 68 67 64 61 68 70 79 92 102 113 117 113 116 115 125 138 139 138 145 200 189 165 147 115 109 118 113 119 106 92 66 68 78 91 109
132 123 118 107 99 87 82 71 73 82 71 72 79 83 86 89 100 118 126 141 127 149 158 157 145 142 132 127 141 150 150 137 118 102 98 93 82 83 79 72 71 69 73 89
127 119 103 93 94 97 94 90 83 78 85 86 89 92 100 106 123 129 138 130 148 177 145 152 152 137 133 158 152 150 121 106 98 88 78 71 73 75 64 62 56 64 73 75
135 122 112 112 107 94 84 90 76 80 76 76 78 93 106 119 139 163 153 156 166 137 149 161 141 123 125 140 152 149 130 104 83 83 79 75 65 57 45 36 43 60 64 61
137 123 107 94 88 99 110 100 74 57 56 65 104 115 123 126 135 142 160 137 125 128 130 137 144 121 112 122 158 151 133 109 88 81 74 67 68 66 58 51 43 25 15 34
106 105 115 107 106 97 82 71 47 67 89 103 108 102 108 117 132 127 117 112 99 104 101 82 163 184 114 153 152 141 132 119 104 89 86 75 77 79 50 47 45 34 22 15
134 127 118 120 102 83 69 59 64 74 89 93 91 106 120 115 108 108 107 105 108 126 123 120 124 113 108 148 135 150 145 125 117 107 89 78 78 83 58 50 54 57 60 72
141 140 114 98 91 76 73 71 79 96 103 105 112 116 108 105 105 114 130 112 107 109 111 114 108 90 81 87 131 133 134 120 120 106 89 83 81 84 76 59 63 75 87 102

GFSNGP_con_3kmhel_042.txt.gz
Helicity
27 36 43 67 83 24 26 21 43 32 24 6 13 70 57 85 98 115 71 118 117 167 273 362 429 342 443 491 526 355 246 283 255 314 398 228 206 190 141 148 128 118 85 125
100 97 72 31 53 62 25 18 14 10 20 22 34 115 134 186 195 116 135 113 213 180 224 301 298 414 464 525 418 257 291 337 362 381 253 201 159 131 122 114 113 121 136 204
83 107 107 50 25 -0 1 9 15 28 33 48 77 72 145 143 116 137 165 167 164 192 199 205 312 439 487 361 412 386 451 435 390 257 254 143 104 113 118 134 140 147 126 178
84 81 55 8 87 71 77 56 74 99 152 174 174 179 155 116 137 159 161 122 144 176 173 222 350 384 429 531 560 524 429 382 353 217 195 144 112 86 105 137 179 134 126 191
98 72 43 53 74 76 64 120 203 224 198 179 164 111 149 131 212 186 191 139 113 159 234 296 379 522 550 609 490 464 507 252 214 227 264 143 99 84 106 137 165 147 126 175
91 75 32 71 91 89 69 85 203 188 165 126 87 89 182 188 138 132 90 82 106 153 244 372 474 531 534 445 515 539 519 432 146 91 117 84 69 95 125 144 142 153 237 231
113 83 67 143 114 66 74 166 161 135 104 80 118 144 170 164 162 154 115 200 298 384 471 534 559 593 698 792 815 724 451 137 132 69 63 70 104 106 114 108 107 136 195 213
117 88 41 121 97 117 187 149 125 119 136 123 112 97 148 118 116 186 255 379 465 623 764 826 826 858 920 853 526 368 411 151 86 54 50 57 85 96 92 94 137 162 208 220
60 73 108 144 186 177 192 170 177 157 133 122 120 101 111 176 230 285 320 381 525 659 719 736 748 667 654 396 246 202 141 113 61 30 38 56 89 101 109 117 185 185 180 179
118 88 97 152 218 336 271 178 120 116 169 171 149 131 151 303 424 586 669 689 682 622 485 403 425 440 319 204 132 74 27 19 44 51 79 89 94 90 111 155 230 238 191 180
94 163 189 313 450 304 182 184 180 146 280 197 116 267 419 546 577 548 517 472 413 383 336 252 157 100 35 21 37 31 36 46 76 95 89 87 83 114 165 183 205 205 187 180
164 251 213 335 319 249 246 217 202 227 252 299 397 428 455 471 395 338 319 250 181 106 55 28 14 24 42 63 58 69 91 103 107 118 127 129 129 126 116 134 124 122 127 167
277 227 264 272 267 252 250 249 236 255 245 214 233 213 225 197 130 75 55 65 50 49 34 57 59 46 48 74 134 129 121 121 132 131 152 153 146 126 112 118 96 87 126 153
207 232 316 241 263 172 190 166 173 172 164 165 161 133 134 126 95 88 73 59 72 76 68 56 46 50 74 95 127 141 148 131 150 160 163 147 181 176 168 147 137 125 98 127
235 330 371 319 230 223 187 163 189 182 159 139 125 106 90 93 101 105 103 77 66 54 53 62 87 77 93 110 133 158 179 191 183 173 197 219 227 228 242 193 169 157 118 126
276 267 248 260 243 224 203 215 197 124 104 163 162 147 130 134 130 100 82 93 76 74 70 87 97 115 107 109 116 140 152 158 181 194 204 224 215 225 274 215 170 179 142 125
226 219 240 230 209 236 227 200 189 186 169 160 139 124 124 107 88 99 85 76 81 75 79 99 125 114 143 134 142 175 186 184 162 169 163 154 173 160 170 179 162 159 186 145
205 209 221 223 219 192 175 181 180 171 152 127 116 112 118 116 105 95 87 74 68 64 91 161 203 160 160 173 187 192 189 180 178 180 205 187 166 156 150 124 118 109 149 150
244 257 240 211 181 191 182 167 146 123 137 135 135 136 108 91 81 72 64 72 65 78 141 129 145 130 127 136 165 193 191 185 176 148 190 187 155 140 130 117 97 97 98 94
232 229 221 211 214 169 165 166 133 157 157 142 107 111 114 103 92 74 68 49 63 162 158 139 120 129 151 154 167 151 135 138 120 99 115 137 148 126 122 96 92 94 84 71
211 174 160 170 168 152 144 150 162 165 146 117 123 112 95 71 54 45 41 52 159 150 136 130 144 185 148 141 128 124 121 111 108 89 58 92 114 117 134 116 97 94 103 86
180 179 158 107 125 150 159 158 140 116 119 111 88 78 66 53 45 50 68 150 131 155 125 138 183 145 95 102 103 110 130 122 97 70 57 164 204 146 111 105 96 74 68 67
175 159 158 177 147 141 127 132 95 88 87 73 64 52 37 36 61 80 108 147 142 142 128 146 137 108 126 103 106 115 126 132 137 84 43 75 78 107 116 108 98 83 68 65
164 153 144 133 111 137 157 143 113 97 84 69 76 63 80 77 105 131 155 145 161 143 124 120 96 92 103 100 109 117 139 119 98 102 91 136 123 126 140 121 101 88 77 73
157 151 144 122 151 152 148 128 109 126 119 99 114 137 123 131 134 124 131 133 130 115 91 94 96 84 88 104 108 104 104 100 58 64 98 112 115 100 108 97 91 83 71 67
153 153 149 180 169 150 133 117 106 111 105 110 126 124 105 126 131 121 128 119 104 94 89 90 91 83 73 70 86 92 85 80 64 44 67 72 89 74 70 68 77 78 65 69
203 187 147 146 143 133 119 102 107 103 109 140 119 88 105 148 135 128 121 106 102 102 101 95 97 95 84 81 77 72 66 55 59 34 30 38 46 48 58 63 65 63 70 62

GFSNGP_con_3kmhel_045.txt.gz
Helicity
86 68 20 45 80 64 35 11 150 36 70 16 70 52 133 79 67 89 101 121 215 308 458 508 465 475 503 558 588 605 560 443 279 292 410 412 476 248 199 155 123 99 79 84
86 102 101 59 128 66 67 77 57 42 34 29 43 76 122 141 174 188 222 206 237 276 376 397 439 449 454 522 623 553 444 390 467 520 522 489 265 152 117 101 91 95 132 127
113 121 101 83 23 56 75 67 51 53 71 144 168 159 148 168 187 163 165 208 193 145 92 138 222 349 446 502 453 468 530 545 527 583 650 312 277 212 123 87 90 115 115 119
107 131 124 41 62 64 98 147 166 204 180 143 178 208 197 152 159 240 238 180 144 118 157 211 326 430 474 511 548 593 659 697 756 786 523 322 345 231 148 91 95 120 131 131
130 115 73 37 108 66 91 152 162 186 231 219 167 158 202 186 134 168 171 173 152 185 262 385 483 503 609 631 669 711 705 792 856 668 556 424 214 168 102 82 92 120 137 155
144 122 65 33 77 123 117 139 141 142 146 135 117 82 41 145 219 206 258 328 368 484 566 620 600 712 807 836 853 873 924 856 852 637 196 123 98 59 65 84 90 116 139 169
181 122 85 92 98 85 123 111 163 154 132 113 59 27 71 131 224 299 376 457 609 743 753 732 759 837 861 837 914 942 875 603 238 100 55 27 38 63 76 99 106 106 120 157
166 133 71 104 140 115 130 237 196 168 148 130 137 146 148 262 299 357 413 485 507 596 672 685 616 664 712 744 679 596 347 113 60 49 30 -3 38 78 108 113 114 122 169 179
79 58 79 205 262 288 246 247 214 201 190 150 173 190 316 444 529 524 478 456 421 425 408 365 329 337 305 180 145 141 93 96 69 39 46 64 91 94 119 118 143 161 225 208
108 63 228 372 401 357 303 243 272 238 229 185 215 307 364 430 469 484 434 380 278 255 200 129 93 139 147 122 88 105 88 78 72 79 90 101 102 115 135 143 152 166 199 203
155 255 418 446 416 405 395 324 278 303 302 274 337 348 357 352 342 312 267 211 182 185 174 215 180 130 88 72 80 85 74 79 90 109 110 120 131 141 160 148 163 176 182 196
153 225 310 380 402 382 368 345 261 245 283 288 279 276 271 271 242 224 213 208 224 205 167 121 110 111 96 74 76 84 92 118 123 126 133 150 158 155 140 131 118 111 100 141
238 310 378 370 385 328 308 282 283 276 251 276 289 274 283 246 222 218 194 168 135 127 117 115 84 68 73 88 91 129 147 146 162 164 179 181 194 201 175 170 117 133 91 78
303 379 325 250 236 249 272 269 285 277 259 252 238 208 178 169 149 149 132 120 124 118 113 94 88 90 89 87 102 115 149 176 215 227 245 242 240 236 255 219 200 181 174 125
378 342 351 305 271 254 244 237 281 272 237 238 209 178 160 182 186 174 154 141 113 110 99 95 101 103 105 118 127 147 179 216 237 256 280 274 261 245 259 233 228 192 183 165
311 306 336 331 309 276 271 292 273 217 224 203 211 214 188 168 167 154 128 113 110 112 92 100 112 115 131 150 170 166 166 175 190 192 191 196 209 224 217 170 147 166 156 199
335 314 276 264 252 270 314 279 244 216 187 196 181 167 183 179 164 147 124 100 90 85 108 94 120 120 112 135 141 146 168 183 185 196 197 200 204 181 182 176 152 138 157 137
256 247 294 342 325 307 266 238 207 194 192 171 167 171 178 160 134 108 96 92 120 160 165 132 120 112 127 142 166 166 177 172 162 163 161 154 139 109 90 162 166 156 126 121
313 296 318 324 279 260 218 196 203 196 172 161 160 150 109 101 94 87 94 126 139 124 105 93 90 125 157 159 151 143 155 163 173 161 141 115 129 84 69 118 128 118 120 129
442 401 356 339 285 240 221 182 187 203 180 154 126 123 120 119 102 110 99 107 128 97 91 111 153 142 120 135 152 152 149 141 153 149 127 129 126 120 85 141 153 152 130 109
311 298 267 243 228 220 210 175 164 160 133 107 115 124 116 90 106 94 97 101 123 99 89 123 149 114 119 139 113 123 129 145 151 125 136 148 133 83 130 144 181 124 98 83
243 192 163 161 185 193 159 143 123 108 111 99 86 83 95 98 94 79 72 117 111 110 104 136 113 118 125 119 114 109 127 116 109 119 128 126 93 19 59 72 65 99 123 108
161 155 150 146 137 123 116 98 83 81 98 70 58 65 64 54 52 75 88 122 113 115 131 134 120 103 92 91 93 93 115 109 105 118 128 128 115 78 16 1 68 101 111 120
172 175 156 128 109 125 162 147 96 111 106 78 67 64 70 74 83 110 122 140 145 147 131 131 116 102 77 56 77 86 98 102 90 92 94 88 79 60 56 69 84 81 69 96
167 147 140 177 195 170 164 162 157 141 130 125 120 103 130 127 116 109 134 145 146 133 114 114 114 105 78 68 66 79 75 76 84 73 71 65 55 44 49 50 62 70 60 79
185 201 222 225 187 161 154 144 140 133 122 112 103 120 155 153 157 146 143 149 144 131 116 97 97 87 82 69 75 69 67 71 77 72 63 62 56 49 43 44 48 48 58 65
245 186 202 208 179 157 157 143 130 113 111 106 95 118 146 164 164 163 161 137 132 129 115 96 92 77 76 87 70 65 61 60 68 69 49 47 54 52 48 50 39 32 34 36

GFSNGP_con_3kmhel_048.txt.gz
Helicity
97 107 90 106 151 127 88 64 84 51 100 45 25 28 40 31 103 105 94 140 211 329 368 437 483 550 557 592 593 657 613 514 421 398 512 516 578 541 457 443 294 164 149 145
111 140 95 75 106 124 102 72 66 71 115 96 134 140 220 210 212 221 198 154 127 250 360 415 491 548 564 591 568 554 486 498 521 521 627 631 555 408 471 421 319 178 175 137
114 168 144 116 79 92 100 79 76 126 92 152 309 325 267 260 261 246 210 167 141 141 226 326 364 411 485 530 570 582 611 583 598 599 586 593 587 820 738 429 175 137 113 106
111 164 138 100 89 120 201 212 187 237 221 182 214 230 263 238 207 225 204 193 157 138 180 233 309 397 466 535 606 649 674 701 702 762 885 1012 992 504 167 80 73 65 68 85
151 148 137 104 111 128 136 175 174 203 178 112 102 214 238 195 180 167 171 227 253 262 310 370 436 514 660 724 752 771 753 791 899 906 883 585 250 72 74 69 56 59 82 104
147 157 121 47 94 163 173 168 144 179 177 152 106 137 111 116 153 238 279 259 299 343 402 508 524 654 769 738 752 797 782 794 709 516 347 108 91 98 59 89 92 99 106 114
213 168 135 75 85 126 175 114 166 154 124 106 104 74 114 176 265 264 272 293 340 440 474 464 533 663 705 693 698 611 589 571 188 107 140 127 118 128 108 95 108 121 124 125
244 228 130 113 196 160 145 207 186 158 107 129 118 216 259 268 263 275 310 338 361 431 425 383 392 410 419 320 166 191 162 138 125 124 140 135 118 108 116 123 132 132 145 145
124 95 129 128 137 177 210 226 186 164 128 144 188 251 290 324 329 320 311 301 263 236 232 240 274 231 233 191 181 156 145 133 147 131 110 114 131 122 144 143 153 158 175 178
184 194 292 314 315 289 275 267 235 192 168 174 223 248 310 323 323 316 300 301 275 280 263 237 189 149 139 161 149 151 144 128 107 106 109 115 133 147 166 169 183 196 194 192
227 240 316 331 329 315 340 303 305 313 281 252 295 303 312 322 330 328 308 275 241 217 195 192 186 192 146 126 112 113 93 91 97 113 123 139 150 173 196 203 217 222 218 224
167 168 248 307 336 312 329 299 279 298 329 325 329 354 371 371 296 269 245 224 247 247 237 212 182 170 155 118 97 91 105 125 150 170 176 186 198 195 179 190 174 171 164 215
167 333 339 408 405 341 358 321 310 324 306 336 335 335 327 300 277 254 249 258 249 227 205 187 182 164 128 108 108 116 112 118 135 147 173 205 228 259 249 206 168 151 146 149
330 445 403 322 301 329 333 309 343 350 328 311 313 315 299 298 299 314 292 233 201 189 186 163 148 145 128 118 119 131 139 150 173 188 201 208 222 231 237 249 242 236 180 175
309 266 308 348 356 353 344 352 414 387 357 364 321 304 294 276 266 250 227 204 175 174 162 152 155 149 142 126 126 124 130 140 154 160 167 175 177 172 174 177 197 197 145 178
373 348 339 359 342 337 364 355 369 355 356 331 330 304 247 237 229 211 189 166 149 154 138 141 131 130 120 116 126 120 134 145 156 171 177 175 178 179 172 173 166 160 160 181
413 349 346 338 333 340 327 330 340 315 288 281 243 207 217 203 204 200 180 151 147 152 138 125 110 104 119 136 142 132 136 143 162 169 175 164 160 159 148 140 126 107 92 101
268 262 251 261 308 361 395 374 326 274 239 188 178 195 215 205 182 159 142 132 142 137 155 129 121 125 143 151 152 147 165 174 163 168 163 170 166 170 180 143 139 96 119 140
316 324 317 317 321 348 334 310 268 221 179 158 171 185 166 157 139 121 110 129 141 146 126 111 137 135 140 162 169 146 166 158 162 154 151 158 151 182 153 103 95 91 48 162
419 420 426 401 342 343 310 241 203 189 163 159 155 159 167 158 121 129 120 139 135 98 99 152 160 154 153 155 153 154 152 130 130 123 129 146 156 154 142 77 19 99 130 141
381 387 389 371 363 276 196 151 156 167 151 135 144 129 124 116 130 103 145 133 136 103 112 161 142 128 140 143 143 142 133 117 110 113 110 111 123 138 116 59 -51 -132 -44 30
314 348 331 265 224 194 158 154 147 134 124 125 119 123 131 135 134 98 76 110 105 116 106 139 143 140 134 124 128 126 126 125 115 111 106 105 108 106 99 72 21 -62 -37 48
260 217 194 190 183 174 154 135 121 110 112 106 108 109 104 101 80 85 86 108 100 119 128 132 139 144 143 123 107 109 107 116 104 107 101 100 94 96 91 78 57 47 45 83
195 191 172 159 162 143 135 135 148 125 125 119 120 103 102 93 91 100 101 116 142 158 154 154 159 156 147 123 115 109 112 108 94 88 82 83 84 96 96 90 67 49 42 52
181 163 152 163 176 179 179 176 184 169 150 150 141 119 124 103 97 97 149 158 175 172 163 164 168 162 136 119 117 114 100 89 78 85 65 61 65 72 78 82 75 49 38 34
212 220 219 205 191 192 196 184 180 158 132 136 123 121 131 153 163 172 178 183 174 164 165 145 147 141 122 103 114 102 92 77 69 82 58 51 59 69 78 76 73 60 41 32
267 267 250 245 229 215 207 183 163 146 112 104 89 105 145 170 181 180 174 172 159 153 159 141 134 115 108 110 111 94 82 66 57 69 56 55 68 79 84 78 79 76 53 32